Data No.,UTC Date,UTC Time,Latitude,Longitude,Course(deg),Temp(degC)
21,2004/4/21,5:37:00,33-40.0600N,137-25.6600E,155,22.983
22,2004/4/21,5:38:00,33-39.8400N,137-25.7800E,155,22.978
23,2004/4/21,5:39:00,33-39.6200N,137-25.9000E,155,22.974
24,2004/4/21,5:40:00,33-39.4100N,137-26.0200E,155,22.96
25,2004/4/21,5:41:00,33-39.1800N,137-26.1400E,156,22.947
26,2004/4/21,5:42:00,33-38.9700N,137-26.2500E,156,22.939
27,2004/4/21,5:43:00,33-38.7400N,137-26.3700E,156,22.926
28,2004/4/21,5:44:00,33-38.5200N,137-26.4800E,156,22.903
29,2004/4/21,5:45:00,33-38.3000N,137-26.5900E,156,22.889
30,2004/4/21,5:46:00,33-38.0800N,137-26.7000E,157,22.868
31,2004/4/21,5:47:00,33-37.8500N,137-26.8200E,157,22.854
32,2004/4/21,5:48:00,33-37.6300N,137-26.9200E,157,22.824
33,2004/4/21,5:49:00,33-37.4200N,137-27.0300E,157,22.799
34,2004/4/21,5:50:00,33-37.1900N,137-27.1400E,157,22.761
35,2004/4/21,5:51:00,33-36.9700N,137-27.2500E,157,22.707
36,2004/4/21,5:52:00,33-36.7500N,137-27.3600E,157,22.682
37,2004/4/21,5:53:00,33-36.5300N,137-27.4700E,156,22.676
38,2004/4/21,5:54:00,33-36.3100N,137-27.5800E,157,22.669
39,2004/4/21,5:55:00,33-36.1000N,137-27.6900E,157,22.676
40,2004/4/21,5:56:00,33-35.8600N,137-27.8100E,157,22.693
41,2004/4/21,5:57:00,33-35.6400N,137-27.9200E,157,22.704
42,2004/4/21,5:58:00,33-35.4200N,137-28.0200E,157,22.716
43,2004/4/21,5:59:00,33-35.2000N,137-28.1300E,157,22.724
44,2004/4/21,6:00:00,33-34.9800N,137-28.2400E,157,22.732
45,2004/4/21,6:01:00,33-34.7600N,137-28.3500E,157,22.738
46,2004/4/21,6:02:00,33-34.5400N,137-28.4600E,157,22.745
47,2004/4/21,6:03:00,33-34.3200N,137-28.5600E,157,22.746
48,2004/4/21,6:04:00,33-34.1000N,137-28.6700E,158,22.75
49,2004/4/21,6:05:00,33-33.8800N,137-28.7700E,158,22.749
50,2004/4/21,6:06:00,33-33.6500N,137-28.8800E,158,22.756
51,2004/4/21,6:07:00,33-33.4400N,137-28.9800E,158,22.763
52,2004/4/21,6:08:00,33-33.2100N,137-29.0900E,158,22.778
53,2004/4/21,6:09:00,33-33.0000N,137-29.1800E,159,22.795
54,2004/4/21,6:10:00,33-32.7700N,137-29.2900E,158,22.81
55,2004/4/21,6:11:00,33-32.5500N,137-29.3900E,159,22.822
56,2004/4/21,6:12:00,33-32.3300N,137-29.4900E,159,22.831
57,2004/4/21,6:13:00,33-32.1100N,137-29.5900E,159,22.843
58,2004/4/21,6:14:00,33-31.8800N,137-29.6900E,159,22.851
59,2004/4/21,6:15:00,33-31.6400N,137-29.7900E,160,22.858
60,2004/4/21,6:16:00,33-31.4200N,137-29.8900E,160,22.862
61,2004/4/21,6:17:00,33-31.1900N,137-29.9800E,160,22.865
62,2004/4/21,6:18:00,33-30.9600N,137-30.0800E,160,22.866
63,2004/4/21,6:19:00,33-30.7400N,137-30.1700E,160,22.866
64,2004/4/21,6:20:00,33-30.5200N,137-30.2600E,161,22.866
65,2004/4/21,6:21:00,33-30.2800N,137-30.3500E,161,22.863
66,2004/4/21,6:22:00,33-30.0600N,137-30.4400E,161,22.862
67,2004/4/21,6:23:00,33-29.8400N,137-30.5300E,161,22.859
68,2004/4/21,6:24:00,33-29.6000N,137-30.6300E,161,22.855
69,2004/4/21,6:25:00,33-29.3800N,137-30.7100E,162,22.852
70,2004/4/21,6:26:00,33-29.1500N,137-30.8000E,162,22.85
71,2004/4/21,6:27:00,33-28.9200N,137-30.8900E,162,22.846
72,2004/4/21,6:28:00,33-28.6900N,137-30.9800E,162,22.845
73,2004/4/21,6:29:00,33-28.4700N,137-31.0600E,162,22.843
74,2004/4/21,6:30:00,33-28.2300N,137-31.1500E,162,22.861
75,2004/4/21,6:31:00,33-28.0100N,137-31.2300E,162,22.833
76,2004/4/21,6:32:00,33-27.7800N,137-31.3100E,163,22.856
77,2004/4/21,6:33:00,33-27.5500N,137-31.3900E,163,22.854
78,2004/4/21,6:34:00,33-27.3200N,137-31.4800E,163,22.852
79,2004/4/21,6:35:00,33-27.0700N,137-31.5600E,163,22.84
80,2004/4/21,6:36:00,33-26.8400N,137-31.6400E,164,22.816
81,2004/4/21,6:37:00,33-26.6000N,137-31.7200E,164,22.8
82,2004/4/21,6:38:00,33-26.3700N,137-31.8000E,164,22.781
83,2004/4/21,6:39:00,33-26.1300N,137-31.8800E,164,22.764
84,2004/4/21,6:40:00,33-25.9000N,137-31.9500E,165,22.744
85,2004/4/21,6:41:00,33-25.6700N,137-32.0300E,165,22.73
86,2004/4/21,6:42:00,33-25.4400N,137-32.1000E,165,22.721
87,2004/4/21,6:43:00,33-25.2000N,137-32.1700E,165,22.708
88,2004/4/21,6:44:00,33-24.9600N,137-32.2400E,165,22.685
89,2004/4/21,6:45:00,33-24.7300N,137-32.3100E,166,22.638
90,2004/4/21,6:46:00,33-24.4900N,137-32.3800E,166,22.631
91,2004/4/21,6:47:00,33-24.2600N,137-32.4500E,166,22.643
92,2004/4/21,6:48:00,33-24.0200N,137-32.5200E,166,22.653
93,2004/4/21,6:49:00,33-23.7900N,137-32.5800E,166,22.651
94,2004/4/21,6:50:00,33-23.5500N,137-32.6500E,166,22.643
95,2004/4/21,6:51:00,33-23.3200N,137-32.7100E,167,22.623
96,2004/4/21,6:52:00,33-23.0900N,137-32.7800E,167,22.597
97,2004/4/21,6:53:00,33-22.8500N,137-32.8400E,167,22.576
98,2004/4/21,6:54:00,33-22.6100N,137-32.9000E,167,22.551
99,2004/4/21,6:55:00,33-22.3600N,137-32.9700E,168,22.506
100,2004/4/21,6:56:00,33-22.1200N,137-33.0300E,168,22.485
101,2004/4/21,6:57:00,33-21.8900N,137-33.0800E,168,22.47
102,2004/4/21,6:58:00,33-21.6500N,137-33.1400E,168,22.454
103,2004/4/21,6:59:00,33-21.4100N,137-33.2000E,168,22.426
104,2004/4/21,7:00:00,33-21.1700N,137-33.2500E,169,22.371
105,2004/4/21,7:01:00,33-20.9400N,137-33.3300E,163,21.953
106,2004/4/21,7:02:00,33-20.7100N,137-33.4100E,163,21.824
107,2004/4/21,7:03:00,33-20.4900N,137-33.4900E,162,21.813
108,2004/4/21,7:04:00,33-20.2600N,137-33.5800E,162,21.812
109,2004/4/21,7:05:00,33-20.0500N,137-33.6600E,162,21.816
110,2004/4/21,7:06:00,33-19.8200N,137-33.7400E,162,21.808
111,2004/4/21,7:07:00,33-19.6000N,137-33.8200E,162,21.788
112,2004/4/21,7:08:00,33-19.3800N,137-33.9100E,162,21.76
113,2004/4/21,7:09:00,33-19.1600N,137-34.0000E,162,21.741
114,2004/4/21,7:10:00,33-18.9400N,137-34.0800E,161,21.712
115,2004/4/21,7:11:00,33-18.7200N,137-34.1700E,161,21.792
116,2004/4/21,7:12:00,33-18.5000N,137-34.2500E,161,21.931
117,2004/4/21,7:13:00,33-18.2900N,137-34.3400E,161,21.708
118,2004/4/21,7:14:00,33-18.0500N,137-34.4300E,161,21.634
119,2004/4/21,7:15:00,33-17.8400N,137-34.5200E,160,21.564
120,2004/4/21,7:16:00,33-17.6200N,137-34.6100E,161,21.536
121,2004/4/21,7:17:00,33-17.4100N,137-34.7000E,160,21.498
122,2004/4/21,7:18:00,33-17.1900N,137-34.7800E,161,21.448
123,2004/4/21,7:19:00,33-16.9800N,137-34.8700E,160,21.396
124,2004/4/21,7:20:00,33-16.7700N,137-34.9600E,160,21.356
125,2004/4/21,7:21:00,33-16.5600N,137-35.0500E,160,21.278
126,2004/4/21,7:22:00,33-16.3500N,137-35.1400E,160,21.216
127,2004/4/21,7:23:00,33-16.1300N,137-35.2300E,159,21.142
128,2004/4/21,7:24:00,33-15.9300N,137-35.3300E,159,21.071
129,2004/4/21,7:25:00,33-15.7100N,137-35.4200E,159,21.001
130,2004/4/21,7:26:00,33-15.5000N,137-35.5200E,159,20.954
131,2004/4/21,7:27:00,33-15.2800N,137-35.6100E,160,20.916
132,2004/4/21,7:28:00,33-15.0700N,137-35.7000E,159,20.884
133,2004/4/21,7:29:00,33-14.8600N,137-35.7900E,159,20.846
134,2004/4/21,7:30:00,33-14.6500N,137-35.8900E,159,20.822
135,2004/4/21,7:31:00,33-14.4300N,137-35.9900E,159,20.791
136,2004/4/21,7:32:00,33-14.2000N,137-36.0900E,159,20.77
137,2004/4/21,7:33:00,33-13.9800N,137-36.1900E,159,20.754
138,2004/4/21,7:34:00,33-13.7600N,137-36.2900E,159,20.738
139,2004/4/21,7:35:00,33-13.5500N,137-36.3800E,159,20.706
140,2004/4/21,7:36:00,33-13.3300N,137-36.4800E,159,20.689
141,2004/4/21,7:37:00,33-13.1100N,137-36.5800E,159,20.677
142,2004/4/21,7:38:00,33-12.8800N,137-36.6800E,160,20.657
143,2004/4/21,7:39:00,33-12.6700N,137-36.7700E,159,20.643
144,2004/4/21,7:40:00,33-12.4500N,137-36.8700E,159,20.631
145,2004/4/21,7:41:00,33-12.2300N,137-36.9700E,159,20.622
146,2004/4/21,7:42:00,33-12.0100N,137-37.0700E,159,20.609
147,2004/4/21,7:43:00,33-11.7900N,137-37.1700E,159,20.596
148,2004/4/21,7:44:00,33-11.5700N,137-37.2600E,159,20.58
149,2004/4/21,7:45:00,33-11.3500N,137-37.3600E,159,20.575
150,2004/4/21,7:46:00,33-11.1300N,137-37.4600E,160,20.571
151,2004/4/21,7:47:00,33-10.9100N,137-37.5600E,159,20.558
152,2004/4/21,7:48:00,33-10.6900N,137-37.6500E,160,20.539
153,2004/4/21,7:49:00,33-10.4600N,137-37.7500E,159,20.529
154,2004/4/21,7:50:00,33-10.2400N,137-37.8500E,159,20.519
155,2004/4/21,7:51:00,33-10.0200N,137-37.9500E,159,20.507
156,2004/4/21,7:52:00,33-09.8000N,137-38.0400E,159,20.498
157,2004/4/21,7:53:00,33-09.5600N,137-38.1400E,160,20.488
158,2004/4/21,7:54:00,33-09.3300N,137-38.2400E,160,20.481
159,2004/4/21,7:55:00,33-09.1100N,137-38.3400E,159,20.476
160,2004/4/21,7:56:00,33-08.8900N,137-38.4400E,159,20.472
161,2004/4/21,7:57:00,33-08.6600N,137-38.5400E,159,20.453
162,2004/4/21,7:58:00,33-08.4300N,137-38.6300E,160,20.446
163,2004/4/21,7:59:00,33-08.2200N,137-38.7300E,160,20.453
164,2004/4/21,8:00:00,33-07.9900N,137-38.8200E,160,20.451
165,2004/4/21,8:01:00,33-07.7700N,137-38.9200E,160,20.448
166,2004/4/21,8:02:00,33-07.5500N,137-39.0100E,160,20.442
167,2004/4/21,8:03:00,33-07.3300N,137-39.1100E,160,20.435
168,2004/4/21,8:04:00,33-07.1000N,137-39.2000E,160,20.42
169,2004/4/21,8:05:00,33-06.8800N,137-39.2900E,161,20.404
170,2004/4/21,8:06:00,33-06.6500N,137-39.3900E,160,20.385
171,2004/4/21,8:07:00,33-06.4300N,137-39.4800E,160,20.368
172,2004/4/21,8:08:00,33-06.2100N,137-39.5700E,161,20.354
173,2004/4/21,8:09:00,33-05.9800N,137-39.6600E,160,20.349
174,2004/4/21,8:10:00,33-05.7600N,137-39.7600E,160,20.329
175,2004/4/21,8:11:00,33-05.5400N,137-39.8500E,160,20.309
176,2004/4/21,8:12:00,33-05.3200N,137-39.9400E,160,20.308
177,2004/4/21,8:13:00,33-05.0800N,137-40.0400E,159,20.308
178,2004/4/21,8:14:00,33-04.8500N,137-40.1400E,160,20.311
179,2004/4/21,8:15:00,33-04.6300N,137-40.2400E,160,20.317
180,2004/4/21,8:16:00,33-04.4100N,137-40.3300E,160,20.317
181,2004/4/21,8:17:00,33-04.1900N,137-40.4200E,160,20.319
182,2004/4/21,8:18:00,33-03.9700N,137-40.5100E,160,20.318
183,2004/4/21,8:19:00,33-03.7500N,137-40.6000E,160,20.325
184,2004/4/21,8:20:00,33-03.5300N,137-40.7000E,160,20.323
185,2004/4/21,8:21:00,33-03.3100N,137-40.7900E,160,20.327
186,2004/4/21,8:22:00,33-03.0900N,137-40.8800E,161,20.332
187,2004/4/21,8:23:00,33-02.8600N,137-40.9800E,160,20.338
188,2004/4/21,8:24:00,33-02.6400N,137-41.0700E,161,20.345
189,2004/4/21,8:25:00,33-02.4200N,137-41.1600E,160,20.354
190,2004/4/21,8:26:00,33-02.2000N,137-41.2500E,160,20.363
191,2004/4/21,8:27:00,33-01.9700N,137-41.3400E,160,20.366
192,2004/4/21,8:28:00,33-01.7500N,137-41.4400E,160,20.366
193,2004/4/21,8:29:00,33-01.5200N,137-41.5300E,160,20.37
194,2004/4/21,8:30:00,33-01.3000N,137-41.6200E,160,20.368
195,2004/4/21,8:31:00,33-01.0700N,137-41.7100E,161,20.363
196,2004/4/21,8:32:00,33-00.8500N,137-41.8000E,160,20.356
197,2004/4/21,8:33:00,33-00.6000N,137-41.9000E,161,20.352
198,2004/4/21,8:34:00,33-00.3800N,137-41.9900E,161,20.352
199,2004/4/21,8:35:00,33-00.1500N,137-42.0800E,161,20.35
200,2004/4/21,8:36:00,32-59.9300N,137-42.1700E,161,20.349
201,2004/4/21,8:37:00,32-59.7000N,137-42.2600E,161,20.348
202,2004/4/21,8:38:00,32-59.4800N,137-42.3500E,161,20.346
203,2004/4/21,8:39:00,32-59.2500N,137-42.4400E,161,20.347
204,2004/4/21,8:40:00,32-59.0200N,137-42.5300E,161,20.353
205,2004/4/21,8:41:00,32-58.8000N,137-42.6100E,161,20.353
206,2004/4/21,8:42:00,32-58.5700N,137-42.7000E,161,20.355
207,2004/4/21,8:43:00,32-58.3400N,137-42.7900E,161,20.355
208,2004/4/21,8:44:00,32-58.1200N,137-42.8800E,161,20.358
209,2004/4/21,8:45:00,32-57.8900N,137-42.9700E,161,20.36
210,2004/4/21,8:46:00,32-57.6700N,137-43.0500E,161,20.357
211,2004/4/21,8:47:00,32-57.4400N,137-43.1400E,161,20.354
212,2004/4/21,8:48:00,32-57.2100N,137-43.2300E,161,20.359
213,2004/4/21,8:49:00,32-56.9900N,137-43.3200E,161,20.364
214,2004/4/21,8:50:00,32-56.7700N,137-43.4100E,161,20.367
215,2004/4/21,8:51:00,32-56.5400N,137-43.5000E,161,20.366
216,2004/4/21,8:52:00,32-56.3200N,137-43.5800E,161,20.365
217,2004/4/21,8:53:00,32-56.0900N,137-43.6700E,161,20.363
218,2004/4/21,8:54:00,32-55.8500N,137-43.7600E,162,20.511
219,2004/4/21,8:55:00,32-55.6200N,137-43.8500E,161,20.711
220,2004/4/21,8:56:00,32-55.4000N,137-43.9300E,162,20.776
221,2004/4/21,8:57:00,32-55.1800N,137-44.0200E,161,20.862
222,2004/4/21,8:58:00,32-54.9500N,137-44.1100E,161,21.055
223,2004/4/21,8:59:00,32-54.7300N,137-44.1900E,161,21.128
224,2004/4/21,9:00:00,32-54.5100N,137-44.2800E,161,21.126
225,2004/4/21,9:01:00,32-54.2900N,137-44.3600E,161,21.21
226,2004/4/21,9:02:00,32-54.0700N,137-44.4500E,161,21.269
227,2004/4/21,9:03:00,32-53.8500N,137-44.5300E,162,21.278
228,2004/4/21,9:04:00,32-53.6300N,137-44.6200E,162,21.285
229,2004/4/21,9:05:00,32-53.4100N,137-44.7000E,162,21.289
230,2004/4/21,9:06:00,32-53.1800N,137-44.7900E,161,21.295
231,2004/4/21,9:07:00,32-52.9700N,137-44.8700E,161,21.305
232,2004/4/21,9:08:00,32-52.7400N,137-44.9600E,162,21.311
233,2004/4/21,9:09:00,32-52.5200N,137-45.0400E,162,21.319
234,2004/4/21,9:10:00,32-52.3000N,137-45.1200E,162,21.33
235,2004/4/21,9:11:00,32-52.0800N,137-45.2100E,162,21.337
236,2004/4/21,9:12:00,32-51.8500N,137-45.2900E,162,21.344
237,2004/4/21,9:13:00,32-51.6100N,137-45.3800E,161,21.36
238,2004/4/21,9:14:00,32-51.3900N,137-45.4700E,162,21.378
239,2004/4/21,9:15:00,32-51.1700N,137-45.5500E,161,21.389
240,2004/4/21,9:16:00,32-50.9500N,137-45.6400E,161,21.403
241,2004/4/21,9:17:00,32-50.7300N,137-45.7300E,161,21.415
242,2004/4/21,9:18:00,32-50.5000N,137-45.8100E,161,21.427
243,2004/4/21,9:19:00,32-50.2800N,137-45.9000E,162,21.447
244,2004/4/21,9:20:00,32-50.0500N,137-45.9800E,162,21.464
245,2004/4/21,9:21:00,32-49.8300N,137-46.0600E,162,21.475
246,2004/4/21,9:22:00,32-49.6000N,137-46.1500E,161,21.475
247,2004/4/21,9:23:00,32-49.3800N,137-46.2300E,162,21.474
248,2004/4/21,9:24:00,32-49.1500N,137-46.3200E,161,21.471
249,2004/4/21,9:25:00,32-48.9200N,137-46.4000E,162,21.47
250,2004/4/21,9:26:00,32-48.7100N,137-46.4900E,162,21.471
251,2004/4/21,9:27:00,32-48.4800N,137-46.5700E,162,21.472
252,2004/4/21,9:28:00,32-48.2500N,137-46.6500E,162,21.477
253,2004/4/21,9:29:00,32-48.0200N,137-46.7400E,162,21.48
254,2004/4/21,9:30:00,32-47.8000N,137-46.8200E,162,21.484
255,2004/4/21,9:31:00,32-47.5500N,137-46.9100E,163,21.494
256,2004/4/21,9:32:00,32-47.3300N,137-46.9900E,162,21.504
257,2004/4/21,9:33:00,32-47.1000N,137-47.0700E,162,21.509
258,2004/4/21,9:34:00,32-46.8700N,137-47.1600E,162,21.517
259,2004/4/21,9:35:00,32-46.6400N,137-47.2400E,163,21.517
260,2004/4/21,9:36:00,32-46.4100N,137-47.3200E,163,21.517
261,2004/4/21,9:37:00,32-46.1800N,137-47.4000E,163,21.515
262,2004/4/21,9:38:00,32-45.9500N,137-47.4800E,163,21.507
263,2004/4/21,9:39:00,32-45.7200N,137-47.5600E,163,21.505
264,2004/4/21,9:40:00,32-45.4900N,137-47.6400E,163,21.503
265,2004/4/21,9:41:00,32-45.2600N,137-47.7200E,163,21.502
266,2004/4/21,9:42:00,32-45.0300N,137-47.8100E,163,21.504
267,2004/4/21,9:43:00,32-44.7900N,137-47.8900E,163,21.504
268,2004/4/21,9:44:00,32-44.5700N,137-47.9700E,163,21.511
269,2004/4/21,9:45:00,32-44.3300N,137-48.0500E,163,21.513
270,2004/4/21,9:46:00,32-44.1000N,137-48.1300E,163,21.515
271,2004/4/21,9:47:00,32-43.8800N,137-48.2100E,163,21.512
272,2004/4/21,9:48:00,32-43.6400N,137-48.2900E,163,21.503
273,2004/4/21,9:49:00,32-43.4100N,137-48.3700E,163,21.49
274,2004/4/21,9:50:00,32-43.1700N,137-48.4500E,163,21.48
275,2004/4/21,9:51:00,32-42.9200N,137-48.5400E,163,21.47
276,2004/4/21,9:52:00,32-42.6900N,137-48.6200E,163,21.457
277,2004/4/21,9:53:00,32-42.4600N,137-48.7000E,163,21.441
278,2004/4/21,9:54:00,32-42.2200N,137-48.7800E,164,21.419
279,2004/4/21,9:55:00,32-41.9900N,137-48.8600E,163,21.396
280,2004/4/21,9:56:00,32-41.7600N,137-48.9500E,163,21.375
281,2004/4/21,9:57:00,32-41.5200N,137-49.0200E,164,21.346
282,2004/4/21,9:58:00,32-41.2900N,137-49.1000E,164,21.312
283,2004/4/21,9:59:00,32-41.0600N,137-49.1800E,163,21.28
284,2004/4/21,10:00:00,32-40.8300N,137-49.2600E,163,21.245
285,2004/4/21,10:01:00,32-40.5900N,137-49.3400E,163,21.204
286,2004/4/21,10:02:00,32-40.3600N,137-49.4200E,164,21.163
287,2004/4/21,10:03:00,32-40.1300N,137-49.5100E,163,21.107
288,2004/4/21,10:04:00,32-39.9000N,137-49.5900E,163,21.05
289,2004/4/21,10:05:00,32-39.6700N,137-49.6700E,163,20.993
290,2004/4/21,10:06:00,32-39.4300N,137-49.7500E,163,20.957
291,2004/4/21,10:07:00,32-39.2000N,137-49.8300E,163,20.935
292,2004/4/21,10:08:00,32-38.9700N,137-49.9200E,163,20.918
293,2004/4/21,10:09:00,32-38.7400N,137-50.0000E,163,20.885
294,2004/4/21,10:10:00,32-38.5100N,137-50.0800E,163,20.866
295,2004/4/21,10:11:00,32-38.2600N,137-50.1600E,163,20.822
296,2004/4/21,10:12:00,32-38.0300N,137-50.2400E,163,20.797
297,2004/4/21,10:13:00,32-37.8000N,137-50.3200E,163,20.771
298,2004/4/21,10:14:00,32-37.5600N,137-50.4000E,163,20.756
299,2004/4/21,10:15:00,32-37.3300N,137-50.4800E,163,20.746
300,2004/4/21,10:16:00,32-37.1000N,137-50.5600E,163,20.704
301,2004/4/21,10:17:00,32-36.8700N,137-50.6400E,163,20.66
302,2004/4/21,10:18:00,32-36.6300N,137-50.7200E,164,20.648
303,2004/4/21,10:19:00,32-36.4000N,137-50.8000E,163,20.616
304,2004/4/21,10:20:00,32-36.1600N,137-50.8800E,163,20.616
305,2004/4/21,10:21:00,32-35.9300N,137-50.9600E,163,20.594
306,2004/4/21,10:22:00,32-35.6900N,137-51.0400E,164,20.595
307,2004/4/21,10:23:00,32-35.4600N,137-51.1200E,164,20.575
308,2004/4/21,10:24:00,32-35.2200N,137-51.2000E,163,20.553
309,2004/4/21,10:25:00,32-34.9800N,137-51.2800E,164,20.526
310,2004/4/21,10:26:00,32-34.7500N,137-51.3600E,164,20.511
311,2004/4/21,10:27:00,32-34.5100N,137-51.4400E,164,20.508
312,2004/4/21,10:28:00,32-34.2700N,137-51.5100E,164,20.506
313,2004/4/21,10:29:00,32-34.0400N,137-51.5900E,164,20.47
314,2004/4/21,10:30:00,32-33.8100N,137-51.6700E,164,20.46
315,2004/4/21,10:31:00,32-33.5500N,137-51.7500E,164,20.436
316,2004/4/21,10:32:00,32-33.3200N,137-51.8300E,164,20.414
317,2004/4/21,10:33:00,32-33.0800N,137-51.9100E,164,20.404
318,2004/4/21,10:34:00,32-32.8500N,137-51.9800E,164,20.406
319,2004/4/21,10:35:00,32-32.6200N,137-52.0600E,164,20.401
320,2004/4/21,10:36:00,32-32.3900N,137-52.1400E,165,20.392
321,2004/4/21,10:37:00,32-32.1500N,137-52.2100E,164,20.373
322,2004/4/21,10:38:00,32-31.9200N,137-52.2900E,164,20.366
323,2004/4/21,10:39:00,32-31.6900N,137-52.3600E,164,20.356
324,2004/4/21,10:40:00,32-31.4500N,137-52.4400E,164,20.352
325,2004/4/21,10:41:00,32-31.2200N,137-52.5100E,164,20.355
326,2004/4/21,10:42:00,32-30.9900N,137-52.5900E,164,20.353
327,2004/4/21,10:43:00,32-30.7500N,137-52.6600E,165,20.35
328,2004/4/21,10:44:00,32-30.5200N,137-52.7400E,165,20.331
329,2004/4/21,10:45:00,32-30.2900N,137-52.8100E,164,20.321
330,2004/4/21,10:46:00,32-30.0600N,137-52.8800E,164,20.323
331,2004/4/21,10:47:00,32-29.8300N,137-52.9600E,164,20.327
332,2004/4/21,10:48:00,32-29.5900N,137-53.0300E,165,20.328
333,2004/4/21,10:49:00,32-29.3600N,137-53.1000E,165,20.324
334,2004/4/21,10:50:00,32-29.1200N,137-53.1800E,165,20.329
335,2004/4/21,10:51:00,32-28.8700N,137-53.2600E,164,20.33
336,2004/4/21,10:52:00,32-28.6400N,137-53.3300E,165,20.333
337,2004/4/21,10:53:00,32-28.4100N,137-53.4100E,164,20.335
338,2004/4/21,10:54:00,32-28.1700N,137-53.4800E,164,20.337
339,2004/4/21,10:55:00,32-27.9400N,137-53.5600E,164,20.338
340,2004/4/21,10:56:00,32-27.7000N,137-53.6400E,164,20.338
341,2004/4/21,10:57:00,32-27.4700N,137-53.7100E,164,20.339
342,2004/4/21,10:58:00,32-27.2200N,137-53.7900E,164,20.346
343,2004/4/21,10:59:00,32-27.0000N,137-53.8700E,165,20.348
344,2004/4/21,11:00:00,32-26.7600N,137-53.9400E,165,20.346
345,2004/4/21,11:01:00,32-26.5200N,137-54.0200E,165,20.352
346,2004/4/21,11:02:00,32-26.2900N,137-54.0900E,165,20.363
347,2004/4/21,11:03:00,32-26.0500N,137-54.1700E,165,20.368
348,2004/4/21,11:04:00,32-25.8100N,137-54.2400E,165,20.369
349,2004/4/21,11:05:00,32-25.5800N,137-54.3200E,165,20.366
350,2004/4/21,11:06:00,32-25.3400N,137-54.3900E,164,20.368
351,2004/4/21,11:07:00,32-25.1000N,137-54.4600E,166,20.373
352,2004/4/21,11:08:00,32-24.8600N,137-54.5300E,165,20.374
353,2004/4/21,11:09:00,32-24.6300N,137-54.6000E,165,20.369
354,2004/4/21,11:10:00,32-24.3900N,137-54.6800E,165,20.362
355,2004/4/21,11:11:00,32-24.1500N,137-54.7500E,165,20.356
356,2004/4/21,11:12:00,32-23.8900N,137-54.8300E,165,20.353
357,2004/4/21,11:13:00,32-23.6600N,137-54.9000E,165,20.36
358,2004/4/21,11:14:00,32-23.4200N,137-54.9700E,165,20.371
359,2004/4/21,11:15:00,32-23.1800N,137-55.0400E,165,20.374
360,2004/4/21,11:16:00,32-22.9400N,137-55.1200E,165,20.384
361,2004/4/21,11:17:00,32-22.7100N,137-55.1900E,165,20.391
362,2004/4/21,11:18:00,32-22.4600N,137-55.2700E,165,20.397
363,2004/4/21,11:19:00,32-22.2300N,137-55.3400E,165,20.385
364,2004/4/21,11:20:00,32-21.9900N,137-55.4100E,165,20.379
365,2004/4/21,11:21:00,32-21.7500N,137-55.4800E,164,20.37
366,2004/4/21,11:22:00,32-21.5200N,137-55.5600E,164,20.363
367,2004/4/21,11:23:00,32-21.2800N,137-55.6400E,164,20.359
368,2004/4/21,11:24:00,32-21.0500N,137-55.7200E,164,20.362
369,2004/4/21,11:25:00,32-20.8000N,137-55.8000E,164,20.371
370,2004/4/21,11:26:00,32-20.5700N,137-55.8800E,164,20.379
371,2004/4/21,11:27:00,32-20.3400N,137-55.9600E,163,20.381
372,2004/4/21,11:28:00,32-20.1000N,137-56.0400E,163,20.377
373,2004/4/21,11:29:00,32-19.8600N,137-56.1200E,164,20.371
374,2004/4/21,11:30:00,32-19.6300N,137-56.1900E,164,20.366
375,2004/4/21,11:31:00,32-19.3800N,137-56.2700E,164,20.361
376,2004/4/21,11:32:00,32-19.1400N,137-56.3600E,164,20.358
377,2004/4/21,11:33:00,32-18.8900N,137-56.4300E,164,20.365
378,2004/4/21,11:34:00,32-18.6600N,137-56.5100E,164,20.367
379,2004/4/21,11:35:00,32-18.4200N,137-56.5900E,164,20.365
380,2004/4/21,11:36:00,32-18.1800N,137-56.6600E,165,20.361
381,2004/4/21,11:37:00,32-17.9500N,137-56.7400E,164,20.358
382,2004/4/21,11:38:00,32-17.7100N,137-56.8200E,164,20.366
383,2004/4/21,11:39:00,32-17.4800N,137-56.8900E,165,20.352
384,2004/4/21,11:40:00,32-17.2300N,137-56.9700E,164,20.355
385,2004/4/21,11:41:00,32-17.0000N,137-57.0400E,164,20.359
386,2004/4/21,11:42:00,32-16.7700N,137-57.1100E,165,20.367
387,2004/4/21,11:43:00,32-16.5300N,137-57.1900E,164,20.362
388,2004/4/21,11:44:00,32-16.3000N,137-57.2700E,164,20.364
389,2004/4/21,11:45:00,32-16.0700N,137-57.3400E,164,20.374
390,2004/4/21,11:46:00,32-15.8300N,137-57.4200E,165,20.391
391,2004/4/21,11:47:00,32-15.6000N,137-57.4900E,164,20.419
392,2004/4/21,11:48:00,32-15.3700N,137-57.5700E,163,20.442
393,2004/4/21,11:49:00,32-15.1300N,137-57.6600E,162,20.465
394,2004/4/21,11:50:00,32-14.9000N,137-57.7400E,162,20.476
395,2004/4/21,11:51:00,32-14.6700N,137-57.8300E,162,20.482
396,2004/4/21,11:52:00,32-14.4300N,137-57.9200E,162,20.495
397,2004/4/21,11:53:00,32-14.1900N,137-58.0100E,162,20.512
398,2004/4/21,11:54:00,32-13.9600N,137-58.1000E,161,20.534
399,2004/4/21,11:55:00,32-13.7300N,137-58.1900E,162,20.545
400,2004/4/21,11:56:00,32-13.5000N,137-58.2700E,162,20.558
401,2004/4/21,11:57:00,32-13.2700N,137-58.3600E,162,20.575
402,2004/4/21,11:58:00,32-13.0400N,137-58.4500E,162,20.594
403,2004/4/21,11:59:00,32-12.8100N,137-58.5300E,162,20.609
404,2004/4/21,12:00:00,32-12.5800N,137-58.6200E,162,20.615
405,2004/4/21,12:01:00,32-12.3500N,137-58.7100E,162,20.619
406,2004/4/21,12:02:00,32-12.1100N,137-58.7900E,162,20.627
407,2004/4/21,12:03:00,32-11.8800N,137-58.8800E,162,20.631
408,2004/4/21,12:04:00,32-11.6500N,137-58.9600E,162,20.624
409,2004/4/21,12:05:00,32-11.4200N,137-59.0500E,162,20.614
410,2004/4/21,12:06:00,32-11.1800N,137-59.1300E,162,20.604
411,2004/4/21,12:07:00,32-10.9600N,137-59.2200E,161,20.592
412,2004/4/21,12:08:00,32-10.7200N,137-59.3100E,162,20.587
413,2004/4/21,12:09:00,32-10.5000N,137-59.3900E,162,20.582
414,2004/4/21,12:10:00,32-10.2600N,137-59.4700E,163,20.587
415,2004/4/21,12:11:00,32-10.0300N,137-59.5600E,162,20.589
416,2004/4/21,12:12:00,32-09.8000N,137-59.6400E,162,20.588
417,2004/4/21,12:13:00,32-09.5500N,137-59.7400E,162,20.578
418,2004/4/21,12:14:00,32-09.3200N,137-59.8200E,162,20.56
419,2004/4/21,12:15:00,32-09.0900N,137-59.9000E,163,20.556
420,2004/4/21,12:16:00,32-08.8600N,137-59.9900E,163,20.55
421,2004/4/21,12:17:00,32-08.6200N,138-00.0700E,163,20.546
422,2004/4/21,12:18:00,32-08.3900N,138-00.1600E,162,20.55
423,2004/4/21,12:19:00,32-08.1600N,138-00.2500E,160,20.551
424,2004/4/21,12:20:00,32-07.9200N,138-00.3400E,161,20.555
425,2004/4/21,12:21:00,32-07.6900N,138-00.4300E,160,20.56